VE2JJ-13 Weather Reports


time (UTC)temp
C
wind
direction
speed
KPH
gust
KPH
rain 1hr
cm
rain 24hr
cm
rain mn
cm
humidity
%
barometer
mb
20260510132611 16 239 37.0 32.2 0.00 0.08 0.08 55 1001.8
20260510132108 15 240 29.0 19.3 0.00 0.08 0.08 57 1001.8
20260510131609 16 290 20.9 16.1 0.00 0.08 0.08 58 1001.7
20260510131110 15 269 25.7 19.3 0.00 0.08 0.08 58 1001.7
20260510130108 14 173 19.3 16.1 0.00 0.08 0.08 59 1001.5
20260510125610 14 258 33.8 27.4 0.00 0.08 0.08 59 1001.5
20260510125108 13 236 51.5 37.0 0.00 0.08 0.08 60 1001.4
20260510124109 13 285 27.4 29.0 0.00 0.08 0.08 60 1001.3
20260510123539 13 191 22.5 12.9 0.00 0.08 0.08 61 1001.3
20260510123038 13 215 32.2 22.5 0.00 0.08 0.08 61 1001.3
20260510122539 13 224 16.1 12.9 0.00 0.08 0.08 63 1001.3
20260510122038 12 225 25.7 19.3 0.00 0.08 0.08 64 1001.3
20260510121538 12 165 16.1 16.1 0.00 0.08 0.08 66 1001.1
20260510121039 12 221 14.5 22.5 0.00 0.08 0.08 67 1001.1
20260510120543 12 226 20.9 14.5 0.00 0.08 0.08 69 1001.1
20260510120038 12 238 20.9 12.9 0.00 0.08 0.08 69 1001.1
20260510115539 12 238 29.0 22.5 0.00 0.08 0.08 67 1001.1
20260510115040 13 228 20.9 16.1 0.00 0.08 0.08 69 1001.0
20260510114538 13 233 35.4 29.0 0.00 0.08 0.08 73 1001.0
20260510114037 13 266 24.1 16.1 0.00 0.08 0.08 73 1000.9
20260510113540 13 178 12.9 20.9 0.00 0.08 0.08 78 1000.9
20260510113040 12 123 9.7 4.8 0.00 0.08 0.08 82 1000.9
20260510112537 12 229 9.7 4.8 0.00 0.08 0.08 82 1000.8
20260510112038 12 217 11.3 9.7 0.00 0.08 0.08 82 1000.8
20260510111540 12 269 14.5 11.3 0.00 0.08 0.08 83 1000.6
20260510111040 12 236 11.3 8.0 0.00 0.08 0.08 84 1000.6
20260510110539 11 103 9.7 12.9 0.00 0.08 0.08 86 1000.6
20260510110040 11 268 8.0 8.0 0.00 0.08 0.08 88 1000.0
20260510105538 11 214 1.6 0.0 0.00 0.08 0.08 89 1000.0
20260510105038 11 146 8.0 4.8 0.00 0.08 0.08 89 1000.1
20260510104538 11 135 1.6 8.0 0.00 0.08 0.08 89 1000.1
20260510104037 11 116 1.6 3.2 0.00 0.08 0.08 89 1000.0
20260510103537 11 159 4.8 3.2 0.00 0.08 0.08 89 1000.0
20260510103037 11 211 1.6 9.7 0.00 0.08 0.08 90 1000.0
20260510102539 11 225 1.6 4.8 0.00 0.08 0.08 90 1000.0
20260510102011 10 180 4.8 8.0 0.00 0.08 0.08 90 1000.0
20260510101507 10 190 11.3 12.9 0.00 0.08 0.08 91 999.8
20260510101008 10 90 9.7 9.7 0.00 0.08 0.08 91 999.8
20260510100509 10 153 9.7 9.7 0.00 0.08 0.08 91 999.8
20260510100010 10 134 1.6 4.8 0.00 0.08 0.08 92 999.6
20260510095509 10 168 9.7 4.8 0.00 0.08 0.08 92 999.6
20260510095007 10 150 4.8 8.0 0.00 0.08 0.08 92 999.4
20260510094508 10 143 4.8 8.0 0.00 0.08 0.08 92 999.4
20260510094007 10 163 8.0 4.8 0.00 0.08 0.08 92 999.2
20260510093507 10 171 8.0 8.0 0.00 0.08 0.08 92 999.2
20260510093009 10 124 12.9 9.7 0.00 0.08 0.08 92 999.2
20260510092507 10 137 4.8 9.7 0.00 0.08 0.08 92 999.1
20260510092009 10 106 0.0 0.0 0.00 0.08 0.08 91 999.1
20260510091506 10 191 3.2 8.0 0.00 0.08 0.08 91 999.1
20260510091007 10 142 8.0 4.8 0.00 0.08 0.08 91 999.1
20260510090510 10 148 4.8 4.8 0.00 0.08 0.08 91 999.1
20260510090007 10 132 4.8 8.0 0.00 0.08 0.08 91 998.8
20260510085508 10 117 8.0 9.7 0.00 0.08 0.08 91 998.8
20260510085007 10 106 9.7 3.2 0.00 0.08 0.08 91 998.9
20260510084506 10 167 11.3 9.7 0.00 0.08 0.08 91 998.9
20260510084008 10 167 8.0 8.0 0.00 0.08 0.08 91 998.8
20260510083510 10 143 4.8 3.2 0.00 0.08 0.08 91 998.7
20260510083008 10 160 11.3 8.0 0.00 0.08 0.08 91 998.7
20260510082437 10 171 8.0 11.3 0.00 0.08 0.08 91 998.7
20260510081942 10 130 16.1 12.9 0.00 0.08 0.08 91 998.7
20260510081436 10 200 14.5 8.0 0.00 0.08 0.08 91 998.8
20260510080939 10 183 12.9 12.9 0.00 0.08 0.08 91 998.8
20260510080437 10 120 20.9 16.1 0.00 0.08 0.08 91 998.7
20260510075938 10 180 9.7 8.0 0.00 0.08 0.08 91 998.7
20260510075437 11 218 12.9 9.7 0.00 0.08 0.08 91 998.7
20260510074937 11 134 12.9 11.3 0.00 0.08 0.08 91 998.6
20260510074440 11 245 9.7 11.3 0.00 0.08 0.08 91 998.6
20260510073935 11 153 16.1 16.1 0.00 0.08 0.08 91 998.6
20260510073439 11 114 11.3 12.9 0.00 0.08 0.08 91 998.6
20260510072937 11 317 11.3 8.0 0.00 0.08 0.08 91 998.6
20260510072438 11 115 19.3 14.5 0.03 0.08 0.08 91 998.5
20260510071939 11 135 12.9 11.3 0.03 0.08 0.08 91 998.5
20260510071437 11 147 11.3 9.7 0.03 0.08 0.08 91 998.4
20260510070938 11 103 12.9 12.9 0.03 0.08 0.08 91 998.4
20260510070436 11 163 14.5 12.9 0.03 0.08 0.08 92 998.3
20260510065939 11 144 12.9 12.9 0.05 0.08 0.08 92 998.3
20260510065439 11 189 16.1 12.9 0.05 0.08 0.08 92 998.3
20260510064939 11 130 14.5 12.9 0.08 0.08 0.08 92 998.3
20260510064406 11 221 27.4 25.7 0.08 0.08 0.08 92 998.3
20260510063907 11 127 19.3 22.5 0.08 0.08 0.08 92 998.2
20260510063336 11 270 19.3 12.9 0.08 0.08 0.08 92 998.2
20260510062840 11 112 16.1 25.7 0.08 0.08 0.08 92 998.4
20260510062335 11 51 19.3 12.9 0.05 0.05 0.05 92 998.4
20260510061805 11 86 19.3 19.3 0.05 0.05 0.05 92 998.4
20260510061305 11 291 19.3 11.3 0.05 0.05 0.05 91 998.5
20260510060805 11 160 22.5 16.1 0.05 0.05 0.05 91 998.5
20260510060309 11 132 16.1 14.5 0.03 0.03 0.03 91 998.5
20260510055806 11 112 16.1 12.9 0.03 0.03 0.03 90 998.5
20260510055307 11 52 25.7 16.1 0.03 0.03 0.03 90 998.5
20260510054805 11 233 16.1 12.9 0.00 0.00 0.00 89 998.6
20260510053736 11 112 14.5 16.1 0.00 0.00 0.00 87 998.5
20260510053307 11 173 24.1 25.7 0.00 0.00 0.00 85 998.5
20260510053235 11 173 24.1 25.7 0.00 0.00 0.00 85 998.5
20260510052735 11 68 14.5 16.1 0.00 0.00 0.00 85 998.5
20260510052236 11 191 16.1 16.1 0.00 0.00 0.00 83 998.5
20260510051735 11 234 25.7 32.2 0.00 0.00 0.00 81 998.5
20260510051235 11 189 20.9 25.7 0.00 0.00 0.00 81 998.4
20260510050735 11 112 22.5 22.5 0.00 0.00 0.00 80 998.4
20260510050236 11 136 12.9 9.7 0.00 0.00 0.00 80 998.5
20260510045738 11 141 19.3 22.5 0.00 0.00 0.00 80 998.5
20260510045235 11 153 20.9 16.1 0.00 0.00 0.00 80 998.4
20260510044734 11 321 19.3 11.3 0.00 0.00 0.00 80 998.4
20260510044234 11 215 22.5 20.9 0.00 0.00 0.00 80 998.4
20260510043735 11 73 22.5 22.5 0.00 0.00 0.00 80 998.1
20260510043235 11 94 14.5 24.1 0.00 0.00 0.00 80 998.1
20260510042735 11 68 24.1 12.9 0.00 0.00 0.00 79 997.9
20260510042235 11 154 20.9 20.9 0.00 0.00 0.00 79 997.9
20260510041734 10 146 27.4 24.1 0.00 0.00 0.00 79 997.9
20260510041237 10 119 25.7 16.1 0.00 0.00 0.00 79 998.2
20260510040735 10 130 16.1 24.1 0.00 0.00 0.00 79 998.2
20260510040235 10 170 22.5 20.9 0.00 0.00 0.00 79 998.1
20260510035734 10 121 22.5 22.5 0.00 0.00 0.00 79 998.1
20260510035234 10 105 27.4 24.1 0.00 0.00 0.00 79 998.3
20260510034738 10 120 22.5 22.5 0.00 0.00 0.00 79 998.4
20260510034236 10 98 25.7 12.9 0.00 0.00 0.00 79 998.4
20260510033736 10 153 22.5 20.9 0.00 0.00 0.00 79 998.5
20260510033234 10 112 19.3 14.5 0.00 0.00 0.00 79 998.5
20260510032735 10 124 20.9 16.1 0.00 0.00 0.00 79 998.2
20260510031733 10 123 25.7 20.9 0.00 0.00 0.00 79 998.2
20260510031236 11 104 20.9 16.1 0.00 0.00 0.00 79 998.7
20260510030733 11 116 22.5 14.5 0.00 0.00 0.00 79 998.7
20260510030234 11 140 14.5 14.5 0.00 0.00 0.00 79 999.1
20260510025737 11 120 25.7 22.5 0.00 0.00 0.00 79 999.1
20260510025235 11 156 25.7 16.1 0.00 0.00 0.00 79 999.1
20260510024733 11 110 22.5 32.2 0.00 0.00 0.00 79 999.1
20260510024235 11 126 25.7 20.9 0.00 0.00 0.00 79 999.1
20260510023734 11 163 12.9 29.0 0.00 0.00 0.00 79 999.2
20260510023237 11 152 24.1 16.1 0.00 0.00 0.00 79 999.2
20260510022705 11 181 29.0 16.1 0.00 0.00 0.00 79 999.3
20260510022207 11 165 19.3 19.3 0.00 0.00 0.00 79 999.3
20260510021703 11 135 22.5 16.1 0.00 0.00 0.00 79 999.3
20260510021205 11 102 14.5 9.7 0.00 0.00 0.00 79 999.5
20260510020634 11 112 12.9 16.1 0.00 0.00 0.00 78 999.5
20260510020104 11 126 25.7 19.3 0.00 0.00 0.00 78 999.8
20260510015605 11 17 9.7 12.9 0.00 0.00 0.00 77 999.8
20260510015036 11 86 9.7 12.9 0.00 0.00 0.00 76 999.5
20260510014535 11 118 12.9 11.3 0.00 0.00 0.00 76 999.5
20260510014034 11 111 24.1 16.1 0.00 0.00 0.00 76 999.6
20260510013533 11 205 25.7 20.9 0.00 0.00 0.00 76 999.6
20260510013034 11 124 20.9 14.5 0.00 0.00 0.00 75 999.6
20260510012533 11 147 12.9 11.3 0.00 0.00 0.00 75 999.6
20260510011506 11 103 22.5 19.3 0.00 0.00 0.00 74 999.6
20260510010937 11 99 22.5 32.2 0.00 0.00 0.00 73 999.6
20260510010436 11 140 25.7 19.3 0.00 0.00 0.00 73 999.6
20260510005933 11 96 14.5 12.9 0.00 0.00 0.00 72 999.6
20260510005435 11 135 25.7 16.1 0.00 0.00 0.00 72 999.6
20260510004932 11 125 14.5 12.9 0.00 0.00 0.00 72 999.8
20260510004436 11 147 12.9 11.3 0.00 0.00 0.00 72 999.8
20260510003937 12 167 16.1 25.7 0.00 0.00 0.00 71 999.5
20260510003437 12 79 19.3 14.5 0.00 0.00 0.00 71 999.5
20260510002903 12 112 14.5 9.7 0.00 0.00 0.00 70 999.5
20260510002403 12 292 14.5 8.0 0.00 0.00 0.00 70 999.6
20260510001902 12 106 22.5 27.4 0.00 0.00 0.00 69 999.6
20260510001403 12 119 32.2 20.9 0.00 0.00 0.00 68 999.6
20260510000904 12 191 29.0 25.7 0.00 0.00 0.00 68 999.6
20260510000405 12 131 24.1 16.1 0.00 0.00 0.00 68 999.4
20260509235904 12 174 20.9 22.5 0.00 0.00 0.00 67 999.4
20260509235334 12 112 25.7 19.3 0.00 0.00 0.00 66 999.4
20260509234834 12 113 20.9 22.5 0.00 0.00 0.00 66 999.4
20260509234337 13 46 24.1 27.4 0.00 0.00 0.00 66 999.4
20260509233832 13 68 19.3 25.7 0.00 0.00 0.00 65 999.4
20260509233334 13 123 29.0 25.7 0.00 0.00 0.00 65 999.4
20260509232835 13 69 27.4 24.1 0.00 0.00 0.00 64 999.5
20260509232335 13 112 32.2 20.9 0.00 0.00 0.00 63 999.5
20260509231837 13 162 37.0 33.8 0.00 0.00 0.00 62 999.5
20260509231442 14 203 37.0 27.4 0.00 0.00 0.00 61 999.8
20260509231333 14 203 37.0 27.4 0.00 0.00 0.00 61 999.8
20260509230832 14 56 20.9 16.1 0.00 0.00 0.00 61 999.8
20260509230333 15 112 45.1 29.0 0.00 0.00 0.00 60 999.6
20260509225805 15 164 38.6 35.4 0.00 0.00 0.00 60 999.6
20260509225306 15 140 27.4 16.1 0.00 0.00 0.00 60 999.8
20260509224802 15 101 37.0 27.4 0.00 0.00 0.00 60 999.8
20260509224302 15 135 22.5 22.5 0.00 0.00 0.00 59 999.8
20260509223803 15 112 16.1 12.9 0.00 0.00 0.00 59 999.8
20260509223302 15 144 38.6 32.2 0.00 0.00 0.00 58 999.8
20260509222801 15 93 27.4 16.1 0.00 0.00 0.00 57 999.6
20260509222306 16 182 29.0 27.4 0.00 0.00 0.00 56 999.6
20260509221805 16 103 20.9 25.7 0.00 0.00 0.00 56 999.5
20260509221305 16 147 20.9 32.2 0.00 0.00 0.00 55 999.5
20260509220802 16 68 20.9 19.3 0.00 0.00 0.00 56 999.5
20260509220303 15 75 19.3 22.5 0.00 0.00 0.00 56 999.5
20260509215803 16 170 25.7 22.5 0.00 0.00 0.00 55 999.5
20260509215301 16 263 29.0 19.3 0.00 0.00 0.00 52 999.6
20260509214802 16 270 25.7 19.3 0.00 0.00 0.00 52 999.6
20260509214231 17 141 20.9 22.5 0.00 0.00 0.00 51 999.6
20260509213733 17 98 33.8 33.8 0.00 0.00 0.00 49 999.7
20260509213233 17 140 32.2 22.5 0.00 0.00 0.00 49 999.7
20260509212731 17 95 38.6 35.4 0.00 0.00 0.00 49 999.7
20260509211704 17 112 40.2 40.2 0.00 0.00 0.00 48 999.7
20260509211204 17 243 25.7 20.9 0.00 0.00 0.00 49 999.7
20260509210704 17 107 32.2 24.1 0.00 0.00 0.00 49 999.7
20260509210201 17 238 29.0 35.4 0.00 0.00 0.00 49 999.9
20260509205703 17 151 27.4 32.2 0.00 0.00 0.00 50 999.9
20260509205202 17 342 20.9 25.7 0.00 0.00 0.00 49 999.7
20260509204709 17 140 25.7 27.4 0.00 0.00 0.00 49 999.7
20260509204201 17 234 16.1 12.9 0.00 0.00 0.00 48 999.7
20260509203632 17 138 22.5 19.3 0.00 0.00 0.00 48 1000.0
20260509203133 17 195 19.3 14.5 0.00 0.00 0.00 47 1000.0
20260509202633 18 209 38.6 38.6 0.00 0.00 0.00 45 1000.0
20260509202131 17 163 24.1 16.1 0.00 0.00 0.00 45 1000.0
20260509201604 18 180 16.1 11.3 0.00 0.00 0.00 42 1000.1
20260509201102 18 180 19.3 11.3 0.00 0.00 0.00 42 1000.1
20260509200607 18 210 33.8 25.7 0.00 0.00 0.00 43 1000.1
20260509195601 17 180 14.5 19.3 0.00 0.00 0.00 43 1000.3
20260509195103 18 204 25.7 16.1 0.00 0.00 0.00 41 1000.1
20260509194602 18 17 25.7 24.1 0.00 0.00 0.00 38 1000.1
20260509194101 19 247 24.1 35.4 0.00 0.00 0.00 37 1000.1
20260509193601 19 184 20.9 20.9 0.00 0.00 0.00 32 1000.1
20260509193100 18 124 24.1 16.1 0.00 0.00 0.00 31 1000.1
20260509192600 18 154 25.7 16.1 0.00 0.00 0.00 29 1000.4
20260509192101 18 220 46.7 46.7 0.00 0.00 0.00 29 1000.4
20260509191030 19 158 22.5 20.9 0.00 0.00 0.00 29 1000.2
20260509190533 18 137 25.7 22.5 0.00 0.00 0.00 27 1000.2
20260509185530 19 171 14.5 12.9 0.00 0.00 0.00 29 1000.3
20260509185002 18 167 24.1 22.5 0.00 0.00 0.00 27 1000.6
20260509184500 18 86 19.3 16.1 0.00 0.00 0.00 28 1000.6
20260509184005 19 119 27.4 25.7 0.00 0.00 0.00 28 1000.8
20260509183500 18 93 37.0 25.7 0.00 0.00 0.00 27 1000.8
20260509183000 19 106 24.1 22.5 0.00 0.00 0.00 28 1000.8
20260509182501 18 151 22.5 33.8 0.00 0.00 0.00 29 1000.9
20260509182000 18 171 20.9 22.5 0.00 0.00 0.00 28 1000.9
20260509181000 18 129 22.5 20.9 0.00 0.00 0.00 26 1001.2
20260509180500 19 140 20.9 32.2 0.00 0.00 0.00 27 1001.3
20260509180000 18 130 19.3 14.5 0.00 0.00 0.00 28 1001.4
20260509175506 18 281 29.0 25.7 0.00 0.00 0.00 26 1001.4
20260509175000 18 16 24.1 22.5 0.00 0.00 0.00 27 1001.6
20260509174502 18 181 22.5 19.3 0.00 0.00 0.00 27 1001.6
20260509173430 18 19 29.0 25.7 0.00 0.00 0.00 27 1001.8
20260509172933 18 196 19.3 12.9 0.00 0.00 0.00 29 1001.8
20260509172430 18 226 40.2 32.2 0.00 0.00 0.00 28 1001.9
20260509171930 18 112 35.4 33.8 0.00 0.00 0.00 28 1001.9
20260509171430 18 137 37.0 22.5 0.00 0.00 0.00 29 1002.2
20260509170929 18 112 32.2 25.7 0.00 0.00 0.00 30 1002.2
20260509170430 18 190 16.1 16.1 0.00 0.00 0.00 30 1002.4
20260509165929 18 208 11.3 9.7 0.00 0.00 0.00 31 1002.4
20260509165429 18 103 33.8 32.2 0.00 0.00 0.00 30 1002.4
20260509164929 18 178 24.1 16.1 0.00 0.00 0.00 30 1002.4
20260509164429 18 213 37.0 32.2 0.00 0.00 0.00 30 1002.4
20260509163901 18 163 40.2 25.7 0.00 0.00 0.00 30 1002.6
20260509163330 18 173 40.2 35.4 0.00 0.00 0.00 31 1002.6
20260509162833 18 101 14.5 22.5 0.00 0.00 0.00 33 1002.8
20260509162423 18 133 20.9 16.1 0.00 0.00 0.00 33 1002.8
20260509162330 18 133 20.9 16.1 0.00 0.00 0.00 33 1002.8
20260509161832 18 162 12.9 14.5 0.00 0.00 0.00 34 1002.8
20260509161330 18 142 19.3 16.1 0.00 0.00 0.00 33 1002.9
20260509160300 17 202 25.7 22.5 0.00 0.00 0.00 32 1003.2
20260509155802 17 125 32.2 32.2 0.00 0.00 0.00 32 1003.2
20260509155259 17 112 29.0 22.5 0.00 0.00 0.00 33 1003.4
20260509154800 17 133 37.0 20.9 0.00 0.00 0.00 34 1003.4
20260509154300 17 55 27.4 27.4 0.00 0.00 0.00 34 1003.4
20260509153759 17 208 22.5 12.9 0.00 0.00 0.00 34 1003.6
20260509153230 17 216 20.9 19.3 0.00 0.00 0.00 34 1003.6
20260509152730 17 270 20.9 19.3 0.00 0.00 0.00 36 1003.7
20260509151729 16 301 32.2 22.5 0.00 0.00 0.00 34 1003.7
20260509151230 16 200 24.1 33.8 0.00 0.00 0.00 35 1003.8
20260509150728 16 56 24.1 20.9 0.00 0.00 0.00 36 1003.8
20260509150327 16 107 32.2 22.5 0.00 0.00 0.00 38 1003.9
20260509150230 16 107 32.2 22.5 0.00 0.00 0.00 38 1003.9
20260509145731 16 215 12.9 9.7 0.00 0.00 0.00 40 1003.9
20260509144702 16 0 25.7 16.1 0.00 0.00 0.00 40 1003.9
20260509144201 16 132 24.1 32.2 0.00 0.00 0.00 42 1003.9
20260509143629 16 118 27.4 20.9 0.00 0.00 0.00 41 1003.9
20260509143133 16 273 14.5 12.9 0.00 0.00 0.00 41 1003.9
20260509143100 16 273 14.5 12.9 0.00 0.00 0.00 41 1003.9
20260509142600 16 92 25.7 19.3 0.00 0.00 0.00 42 1003.8
20260509142100 15 70 19.3 24.1 0.00 0.00 0.00 43 1003.8
20260509141603 15 117 33.8 25.7 0.00 0.00 0.00 42 1004.0
20260509141102 15 166 14.5 9.7 0.00 0.00 0.00 44 1004.0
20260509140559 15 244 16.1 12.9 0.00 0.00 0.00 43 1004.0
20260509140059 15 153 25.7 19.3 0.00 0.00 0.00 43 1004.0
20260509135100 15 195 20.9 16.1 0.00 0.00 0.00 46 1004.1
20260509134600 14 113 16.1 12.9 0.00 0.00 0.00 46 1004.1
20260509134058 14 103 16.1 27.4 0.00 0.00 0.00 47 1004.2
20260509133559 13 112 14.5 9.7 0.00 0.00 0.00 46 1004.2
20260509133101 13 112 16.1 9.7 0.00 0.00 0.00 46 1004.2